Aérodrome :
LOGIN :

S'inscrire | Disclaimer

   EN    FR    IT 

 










Légende :    VFR   VFR Marginal   IFR   IFR Intensif   IFR Très Intensif
Visi : 
Plafond : 
>= 8 km
>= 3000ft
5 à 8 km
1000 à 3000 ft
1500m à 5 km
500 à 1000 ft
800 à 1500m
200 à 500 ft
< 800m
< 200 ft
Symboles :   Orages  Brouillard  Fortes neiges  Fortes précipitations  Vent > 20 kt
SIGMETs :   Divers  Orages  Givrage  Turbulence  Onde Orograph.  Cendres Volcan.







- Altitude de l'aérodrome : 288 ft
- Code IATA : BZZ


EGVN - RAF Brize Norton

DERNIER METAR :
  • 171350Z 26011KT 9999 FEW040 SCT090 20/07 Q1020 BLU NOSIG

METARs EXPIRÉS :
  • 171250Z 27009KT 9999 BKN043 BKN250 20/07 Q1020 NOSIG
  • 171150Z 24009KT 9999 BKN042 BKN250 19/07 Q1020 NOSIG

TAF TAF EGVN
Valide du 17 à 12h jusqu'au 18 à 12h UTC


171053Z 1712/1812 25010KT 9999 SCT040
BECMG 1717/1720 BKN018
TEMPO 1720/1801 SCT012
BECMG 1801/1804 BKN007
BECMG 1809/1812 SCT022
Pas de NOTAMs connus pour ce terrain.



MET'MAP, la Météo Aéronautique d'un coup d'oeil ! - Copyright ORBIFLY Décembre 2007 - Disclaimer

ORBIFLY MET'MAP TEAM :

Programmation & Développement : Alexandra Zaïnal
Conception & Développement : Baudouin d'Aumeries
Co-Programmation & Développement : Marc-Olivier Méhu
Soutien technique & logistique : Manuel Goepfert

Contact : metmap@orbifly.com




SOURCES & CREDITS :

   NOAA